Regional Weather Roundup
Issued by NWS Midland/Odessa, TX

Skip options and go directly to product.
Home | Oldest Version | Previous Version | Current Version | All | Graphics & Text | Save Text | Print | Product List | Glossary On

Skip product version selection by date and time.   
643
ASUS44 KMAF 291010
RWRMAF
MIDLAND AREA WEATHER ROUNDUP
NATIONAL WEATHER SERVICE MIDLAND TX
500 AM CDT FRI JUL 29 2016

...IN SOUTHWEST TEXAS AND SOUTHEAST NEW MEXICO...

CITY           SKY/WX    TMP DP  RH WIND       PRES   REMARKS
ALPINE         CLEAR     66  57  73 SW6       30.17F
ANDREWS        FAIR      71  63  75 SW5       30.07F
ARTESIA        CLEAR     72  59  64 SE6       30.07F
BIG SPRING     PTCLDY    73  68  86 S7        30.06R
CARLSBAD       CLEAR     72  62  71 SE5       30.05S
DRYDEN           N/A     73  70  90 E9        30.01R
FORT STOCKTON  CLEAR     72  64  76 SE6       30.03F
GUAD PASS      CLEAR     71  53  52 CALM      30.21R
HOBBS          CLEAR     68  66  94 S5        30.10F
MARFA          CLEAR     60  53  77 N6        30.16F
MIDLAND AIRPK  CLEAR     75  66  75 S8        30.05S
MIDLAND INTL   CLEAR     74  67  78 SW7       30.04S
ODESSA         CLEAR     74  65  73 S9        30.06S
PECOS          PTCLDY    74  61  64 E6        30.00S
PRESIDIO       FAIR      78  59  52 NE6       30.00S
SEMINOLE       CLEAR     70  62  75 W3        30.08F
SNYDER           N/A     69  66  90 S7        30.03R
WINK           PTCLDY    73  66  78 E3        30.02F
$$
...OTHER STATIONS IN TEXAS...

CITY           SKY/WX    TMP DP  RH WIND       PRES   REMARKS
ABILENE        CLEAR     77  66  68 SW9       29.99S
AMARILLO       CLEAR     72  61  68 SW12      30.09R
AUSTIN         CLOUDY    75  73  93 CALM      30.00R
BROWNSVILLE    PTCLDY    80  76  87 SE5       29.94F
CORPUS CHRISTI PTCLDY    79  77  94 SE6       29.96S
DALLAS FTW     PTCLDY    78  71  79 S9        29.94F
DEL RIO        MOCLDY    74  70  87 E6        29.97F
EL PASO        CLEAR     79  55  43 SE6       30.06F
HOUSTON INT    MOCLDY    76  74  93 CALM      29.99S
LUBBOCK        CLEAR     71  62  73 W7        30.05F
SAN ANGELO     CLEAR     73  66  78 SW6       30.02S
SAN ANTONIO    CLOUDY    75  70  84 CALM      30.01R
WACO           CLOUDY    77  71  82 S12       29.97F
WICHITA FALLS  NOT AVBL
$$
...OTHER LOCATIONS IN NEW MEXICO...

CITY           SKY/WX    TMP DP  RH WIND       PRES   REMARKS
ALAMAGORDO     CLOUDY    79  54  41 S12       30.10S
ALBUQUERQUE    CLEAR     76  48  37 N3        30.17R
CANNON AFB     CLEAR     68  61  78 W3        30.13R
CLOVIS         CLEAR     66  55  68 CALM      30.13R
HOLLOMAN AFB   CLOUDY    78  55  45 S9        30.08S
ROSWELL        CLEAR     70  58  65 S6        30.07F
RUIDOSO          N/A     64  50  59 N3        30.32F
SANTA FE       NOT AVBL
TRUTH OR CONSE CLEAR     76  51  41 S5        30.15R
TUCUMCARI      LGT RAIN  77  58  51 N10       30.12R
$$

USA.gov is the U.S. government's official web portal to all federal, state and local government web resources and services.